DAL1393 KATL-KDFW

Flight info

Callsign DAL1393
Flight time 2h 5m
Altitude 28000
Route KAJIN2 STNGA MLU YUYUN BEREE3
Aircraft B738/M-SABDFGRVYL/LB2

Departure

Time 2026-05-05 09:42
Airport Hartsfield Jackson Atlanta International Airport (KATL)

Arrival

Time 2026-05-05 11:47
Airport Dallas Fort Worth International Airport (KDFW)
Time Latitude Longitude Altitude Speed Heading
2026-05-05 09:39 33.64581 -84.40589 975 ft 0 kts 50°
2026-05-05 09:40 33.64584 -84.40586 975 ft 1 kts 44°
2026-05-05 09:40 33.64607 -84.40573 975 ft 7 kts 14°
2026-05-05 09:40 33.64659 -84.40574 977 ft 7 kts 337°
2026-05-05 09:41 33.64677 -84.40616 979 ft 5 kts 275°
2026-05-05 09:41 33.64678 -84.40622 979 ft 0 kts 275°
2026-05-05 09:41 33.64678 -84.40701 980 ft 43 kts 269°
2026-05-05 09:41 33.64677 -84.41518 976 ft 148 kts 270°
2026-05-05 09:42 33.64681 -84.42964 1599 ft 181 kts 269°
2026-05-05 09:42 33.64647 -84.44466 2416 ft 195 kts 267°
2026-05-05 09:42 33.64707 -84.46125 3311 ft 205 kts 282°
2026-05-05 09:42 33.65174 -84.47786 4120 ft 221 kts 289°
2026-05-05 09:43 33.65649 -84.49593 4884 ft 238 kts 283°
2026-05-05 09:43 33.66011 -84.51580 5756 ft 253 kts 279°
2026-05-05 09:43 33.66331 -84.53704 6603 ft 268 kts 278°
2026-05-05 09:43 33.66654 -84.55915 7590 ft 276 kts 277°
2026-05-05 09:44 33.66990 -84.58180 8601 ft 281 kts 278°
2026-05-05 09:44 33.67356 -84.60478 9605 ft 286 kts 278°
2026-05-05 09:44 33.67752 -84.62814 10549 ft 292 kts 279°
2026-05-05 09:44 33.68170 -84.65249 11211 ft 308 kts 279°
2026-05-05 09:45 33.68610 -84.67825 11853 ft 324 kts 279°
2026-05-05 09:45 33.69070 -84.70535 12430 ft 341 kts 279°
2026-05-05 09:45 33.69532 -84.73386 12972 ft 357 kts 277°
2026-05-05 09:45 33.69687 -84.76405 13523 ft 370 kts 264°
2026-05-05 09:46 33.69104 -84.79402 14300 ft 374 kts 250°
2026-05-05 09:46 33.68179 -84.82331 15084 ft 379 kts 247°
2026-05-05 09:46 33.67168 -84.85259 15872 ft 384 kts 246°
2026-05-05 09:46 33.66138 -84.88218 16642 ft 389 kts 247°
2026-05-05 09:47 33.65114 -84.91214 17426 ft 392 kts 248°
2026-05-05 09:47 33.64098 -84.94256 18203 ft 396 kts 248°
2026-05-05 09:47 33.63089 -84.97329 18971 ft 400 kts 249°
2026-05-05 09:47 33.62080 -85.00433 19725 ft 403 kts 249°
2026-05-05 09:48 33.61063 -85.03576 20461 ft 407 kts 250°
2026-05-05 09:48 33.60043 -85.06731 21176 ft 410 kts 250°
2026-05-05 09:48 33.59012 -85.09918 21877 ft 413 kts 250°
2026-05-05 09:48 33.57972 -85.13128 22567 ft 417 kts 250°
2026-05-05 09:49 33.56923 -85.16364 23235 ft 420 kts 251°
2026-05-05 09:49 33.55869 -85.19623 23885 ft 423 kts 251°
2026-05-05 09:49 33.54900 -85.22943 24537 ft 425 kts 255°
2026-05-05 09:49 33.54112 -85.26346 25193 ft 427 kts 258°
2026-05-05 09:50 33.53428 -85.29801 25859 ft 429 kts 260°
2026-05-05 09:50 33.52795 -85.33284 26519 ft 431 kts 261°
2026-05-05 09:50 33.52177 -85.36793 27170 ft 433 kts 261°
2026-05-05 09:50 33.51558 -85.40319 27808 ft 435 kts 261°
2026-05-05 09:51 33.50930 -85.43859 28427 ft 438 kts 261°
2026-05-05 09:51 33.50291 -85.47411 29172 ft 436 kts 261°
2026-05-05 09:51 33.49654 -85.50904 30126 ft 429 kts 262°
2026-05-05 09:51 33.49018 -85.54359 30949 ft 424 kts 262°
2026-05-05 09:52 33.48384 -85.57777 31760 ft 419 kts 262°
2026-05-05 09:52 33.47756 -85.61142 32546 ft 414 kts 263°
2026-05-05 09:52 33.47131 -85.64476 33316 ft 409 kts 263°
2026-05-05 09:52 33.46509 -85.67785 34070 ft 404 kts 264°
2026-05-05 09:53 33.45899 -85.71024 34775 ft 399 kts 264°
2026-05-05 09:53 33.45294 -85.74231 35463 ft 394 kts 265°
2026-05-05 09:53 33.44696 -85.77401 35971 ft 393 kts 266°
2026-05-05 09:53 33.44097 -85.80591 36128 ft 392 kts 266°
2026-05-05 09:54 33.42914 -85.86818 36122 ft 378 kts 267°
2026-05-05 09:54 33.41758 -85.92913 36147 ft 376 kts 268°
2026-05-05 09:55 33.41185 -85.95942 36034 ft 373 kts 268°
2026-05-05 09:55 33.40612 -85.98965 36012 ft 374 kts 268°
2026-05-05 09:55 33.39455 -86.05088 36007 ft 379 kts 268°
2026-05-05 09:56 33.38282 -86.11221 36042 ft 378 kts 268°
2026-05-05 09:56 33.37106 -86.17323 36042 ft 376 kts 268°
2026-05-05 09:57 33.35935 -86.23398 36046 ft 376 kts 268°
2026-05-05 09:57 33.34761 -86.29478 36046 ft 376 kts 268°
2026-05-05 09:58 33.33585 -86.35554 36042 ft 376 kts 268°
2026-05-05 09:58 33.32406 -86.41628 36043 ft 376 kts 268°
2026-05-05 09:59 33.31222 -86.47710 36044 ft 376 kts 268°
2026-05-05 09:59 33.30034 -86.53787 36042 ft 376 kts 268°
2026-05-05 10:00 33.28847 -86.59845 36040 ft 375 kts 268°
2026-05-05 10:00 33.27657 -86.65905 36038 ft 375 kts 267°
2026-05-05 10:01 33.26464 -86.71971 36035 ft 376 kts 267°
2026-05-05 10:01 33.25265 -86.78045 36030 ft 377 kts 268°
2026-05-05 10:02 33.24059 -86.84132 36029 ft 376 kts 268°
2026-05-05 10:02 33.22854 -86.90196 36027 ft 376 kts 268°
2026-05-05 10:03 33.21648 -86.96255 36027 ft 376 kts 268°
2026-05-05 10:03 33.20439 -87.02312 36026 ft 376 kts 268°
2026-05-05 10:04 33.19226 -87.08370 36026 ft 376 kts 268°
2026-05-05 10:04 33.18011 -87.14424 36025 ft 376 kts 268°
2026-05-05 10:05 33.16794 -87.20472 36025 ft 376 kts 268°
2026-05-05 10:05 33.15574 -87.26511 36025 ft 375 kts 267°
2026-05-05 10:06 33.14352 -87.32550 36024 ft 374 kts 267°
2026-05-05 10:06 33.13130 -87.38577 36021 ft 374 kts 268°
2026-05-05 10:07 33.11909 -87.44604 36019 ft 374 kts 268°
2026-05-05 10:07 33.11027 -87.50630 36018 ft 368 kts 272°
2026-05-05 10:08 33.10394 -87.56663 36014 ft 367 kts 273°
2026-05-05 10:08 33.09764 -87.62686 36009 ft 367 kts 273°
2026-05-05 10:09 33.09104 -87.68731 36004 ft 369 kts 272°
2026-05-05 10:09 33.08424 -87.74764 36002 ft 368 kts 272°
2026-05-05 10:10 33.07733 -87.80806 35999 ft 369 kts 272°
2026-05-05 10:10 33.07035 -87.86865 35995 ft 369 kts 272°
2026-05-05 10:11 33.06336 -87.92901 35997 ft 368 kts 272°
2026-05-05 10:11 33.05633 -87.98947 36001 ft 369 kts 272°
2026-05-05 10:12 33.04928 -88.04985 36001 ft 369 kts 272°
2026-05-05 10:12 33.04221 -88.11017 35996 ft 368 kts 272°
2026-05-05 10:13 33.03511 -88.17045 35992 ft 368 kts 272°
2026-05-05 10:13 33.02799 -88.23062 35991 ft 367 kts 272°
2026-05-05 10:14 33.02087 -88.29056 35995 ft 366 kts 272°
2026-05-05 10:14 33.01374 -88.35045 35994 ft 366 kts 272°
2026-05-05 10:15 33.00658 -88.41028 35994 ft 366 kts 272°
2026-05-05 10:15 32.99939 -88.47013 35993 ft 366 kts 272°
2026-05-05 10:16 32.99216 -88.53000 35994 ft 366 kts 272°
2026-05-05 10:16 32.98489 -88.59000 35997 ft 366 kts 272°
2026-05-05 10:17 32.97761 -88.64978 36000 ft 365 kts 272°
2026-05-05 10:17 32.97028 -88.70985 36002 ft 366 kts 271°
2026-05-05 10:18 32.96294 -88.76958 36005 ft 366 kts 271°
2026-05-05 10:18 32.95558 -88.82934 36006 ft 366 kts 271°
2026-05-05 10:19 32.94819 -88.88906 36007 ft 365 kts 271°
2026-05-05 10:19 32.94078 -88.94873 36009 ft 365 kts 271°
2026-05-05 10:20 32.93336 -89.00820 36005 ft 365 kts 271°
2026-05-05 10:20 32.92592 -89.06767 35999 ft 365 kts 271°
2026-05-05 10:21 32.91843 -89.12725 35995 ft 364 kts 271°
2026-05-05 10:21 32.91094 -89.18662 35990 ft 364 kts 271°
2026-05-05 10:22 32.90342 -89.24599 35986 ft 363 kts 271°
2026-05-05 10:22 32.89588 -89.30524 35983 ft 362 kts 271°
2026-05-05 10:23 32.88834 -89.36437 35981 ft 363 kts 271°
2026-05-05 10:23 32.88076 -89.42358 35980 ft 363 kts 271°
2026-05-05 10:24 32.87315 -89.48270 35980 ft 363 kts 271°
2026-05-05 10:24 32.86552 -89.54181 35979 ft 363 kts 271°
2026-05-05 10:25 32.85786 -89.60092 35977 ft 363 kts 271°
2026-05-05 10:25 32.85016 -89.66011 35976 ft 363 kts 271°
2026-05-05 10:26 32.84242 -89.71947 35974 ft 363 kts 271°
2026-05-05 10:26 32.83464 -89.77870 35972 ft 363 kts 271°
2026-05-05 10:27 32.82685 -89.83792 35968 ft 363 kts 271°
2026-05-05 10:27 32.81903 -89.89708 35961 ft 363 kts 271°
2026-05-05 10:28 32.81117 -89.95633 35959 ft 363 kts 271°
2026-05-05 10:28 32.80330 -90.01551 35959 ft 363 kts 271°
2026-05-05 10:29 32.79539 -90.07467 35956 ft 362 kts 271°
2026-05-05 10:29 32.78750 -90.13343 35956 ft 360 kts 270°
2026-05-05 10:30 32.77961 -90.19209 35959 ft 360 kts 270°
2026-05-05 10:30 32.77170 -90.25074 35959 ft 360 kts 270°
2026-05-05 10:31 32.76374 -90.30945 35957 ft 360 kts 270°
2026-05-05 10:31 32.75577 -90.36810 35955 ft 360 kts 270°
2026-05-05 10:32 32.74776 -90.42676 35955 ft 360 kts 270°
2026-05-05 10:32 32.73973 -90.48534 35955 ft 360 kts 270°
2026-05-05 10:33 32.73166 -90.54403 35951 ft 361 kts 270°
2026-05-05 10:33 32.72358 -90.60258 35946 ft 360 kts 270°
2026-05-05 10:34 32.71546 -90.66126 35945 ft 361 kts 270°
2026-05-05 10:34 32.70731 -90.71995 35945 ft 361 kts 270°
2026-05-05 10:35 32.69912 -90.77858 35945 ft 361 kts 270°
2026-05-05 10:35 32.69089 -90.83740 35945 ft 361 kts 270°
2026-05-05 10:36 32.68265 -90.89602 35943 ft 361 kts 270°
2026-05-05 10:36 32.67439 -90.95464 35941 ft 361 kts 270°
2026-05-05 10:37 32.66609 -91.01338 35938 ft 361 kts 270°
2026-05-05 10:37 32.65775 -91.07214 35935 ft 362 kts 270°
2026-05-05 10:38 32.64939 -91.13084 35933 ft 361 kts 270°
2026-05-05 10:38 32.64100 -91.18949 35933 ft 361 kts 270°
2026-05-05 10:39 32.63260 -91.24804 35932 ft 361 kts 269°
2026-05-05 10:39 32.62417 -91.30667 35932 ft 362 kts 269°
2026-05-05 10:40 32.61569 -91.36545 35930 ft 362 kts 269°
2026-05-05 10:40 32.60717 -91.42424 35928 ft 363 kts 269°
2026-05-05 10:41 32.59862 -91.48306 35926 ft 363 kts 269°
2026-05-05 10:41 32.59002 -91.54202 35924 ft 364 kts 269°
2026-05-05 10:42 32.57706 -91.63045 35917 ft 364 kts 269°
2026-05-05 10:43 32.56838 -91.68952 35913 ft 365 kts 269°
2026-05-05 10:43 32.55966 -91.74852 35911 ft 364 kts 269°
2026-05-05 10:44 32.55092 -91.80753 35909 ft 364 kts 269°
2026-05-05 10:44 32.54215 -91.86658 35909 ft 365 kts 269°
2026-05-05 10:45 32.53334 -91.92566 35908 ft 365 kts 269°
2026-05-05 10:45 32.52448 -91.98486 35908 ft 366 kts 268°
2026-05-05 10:46 32.51599 -92.04412 35906 ft 364 kts 270°
2026-05-05 10:46 32.51099 -92.10337 35907 ft 361 kts 273°
2026-05-05 10:47 32.50722 -92.16249 35909 ft 361 kts 273°
2026-05-05 10:47 32.50330 -92.22169 35908 ft 361 kts 272°
2026-05-05 10:48 32.49914 -92.28090 35907 ft 361 kts 272°
2026-05-05 10:48 32.49485 -92.34004 35904 ft 361 kts 272°
2026-05-05 10:49 32.49050 -92.39921 35901 ft 361 kts 272°
2026-05-05 10:49 32.48611 -92.45826 35893 ft 361 kts 272°
2026-05-05 10:50 32.48170 -92.51735 35887 ft 360 kts 272°
2026-05-05 10:50 32.47727 -92.57635 35883 ft 361 kts 272°
2026-05-05 10:51 32.47280 -92.63539 35881 ft 361 kts 272°
2026-05-05 10:51 32.46831 -92.69455 35881 ft 361 kts 272°
2026-05-05 10:52 32.46378 -92.75363 35880 ft 361 kts 272°
2026-05-05 10:52 32.45922 -92.81278 35880 ft 360 kts 272°
2026-05-05 10:53 32.45464 -92.87179 35880 ft 360 kts 272°
2026-05-05 10:53 32.45006 -92.93067 35880 ft 360 kts 272°
2026-05-05 10:54 32.44556 -92.98958 35879 ft 360 kts 272°
2026-05-05 10:54 32.44107 -93.04839 35878 ft 359 kts 272°
2026-05-05 10:55 32.43655 -93.10713 35876 ft 359 kts 272°
2026-05-05 10:55 32.43200 -93.16592 35874 ft 359 kts 272°
2026-05-05 10:56 32.42741 -93.22470 35872 ft 359 kts 272°
2026-05-05 10:56 32.42280 -93.28348 35871 ft 360 kts 271°
2026-05-05 10:57 32.41816 -93.34227 35868 ft 360 kts 271°
2026-05-05 10:57 32.41348 -93.40107 35862 ft 360 kts 271°
2026-05-05 10:58 32.40877 -93.46002 35857 ft 361 kts 271°
2026-05-05 10:58 32.40403 -93.51896 35855 ft 361 kts 271°
2026-05-05 10:59 32.39926 -93.57789 35853 ft 361 kts 271°
2026-05-05 10:59 32.39446 -93.63681 35850 ft 361 kts 271°
2026-05-05 11:00 32.38963 -93.69593 35847 ft 362 kts 271°
2026-05-05 11:00 32.38477 -93.75499 35845 ft 362 kts 271°
2026-05-05 11:01 32.37986 -93.81419 35844 ft 362 kts 271°
2026-05-05 11:01 32.37493 -93.87335 35844 ft 362 kts 271°
2026-05-05 11:02 32.36997 -93.93257 35843 ft 362 kts 271°
2026-05-05 11:02 32.36499 -93.99172 35841 ft 363 kts 271°
2026-05-05 11:03 32.35997 -94.05099 35839 ft 363 kts 271°
2026-05-05 11:03 32.35491 -94.11042 35839 ft 364 kts 270°
2026-05-05 11:04 32.34982 -94.16979 35839 ft 364 kts 270°
2026-05-05 11:04 32.34471 -94.22910 35837 ft 363 kts 270°
2026-05-05 11:05 32.33956 -94.28843 35835 ft 363 kts 270°
2026-05-05 11:05 32.33440 -94.34773 35835 ft 363 kts 270°
2026-05-05 11:06 32.32920 -94.40704 35834 ft 363 kts 270°
2026-05-05 11:06 32.32399 -94.46629 35833 ft 363 kts 270°
2026-05-05 11:07 32.31874 -94.52557 35832 ft 363 kts 270°
2026-05-05 11:07 32.31346 -94.58481 35831 ft 363 kts 270°
2026-05-05 11:08 32.30816 -94.64404 35828 ft 363 kts 270°
2026-05-05 11:08 32.30282 -94.70345 35825 ft 364 kts 270°
2026-05-05 11:09 32.29746 -94.76269 35822 ft 363 kts 270°
2026-05-05 11:09 32.29208 -94.82187 35822 ft 363 kts 270°
2026-05-05 11:10 32.28667 -94.88107 35823 ft 363 kts 270°
2026-05-05 11:10 32.28123 -94.94030 35826 ft 363 kts 269°
2026-05-05 11:11 32.27576 -94.99950 35828 ft 364 kts 269°
2026-05-05 11:11 32.26983 -95.05867 35828 ft 364 kts 269°
2026-05-05 11:12 32.26340 -95.11798 35827 ft 364 kts 269°
2026-05-05 11:12 32.25695 -95.17726 35826 ft 364 kts 269°
2026-05-05 11:13 32.25201 -95.23653 35823 ft 361 kts 273°
2026-05-05 11:13 32.25262 -95.29554 35820 ft 360 kts 276°
2026-05-05 11:14 32.25467 -95.35449 35802 ft 361 kts 276°
2026-05-05 11:14 32.25658 -95.41355 35754 ft 361 kts 276°
2026-05-05 11:15 32.25824 -95.47275 35716 ft 361 kts 275°
2026-05-05 11:15 32.25978 -95.53200 35715 ft 362 kts 275°
2026-05-05 11:16 32.26124 -95.59143 35721 ft 363 kts 275°
2026-05-05 11:16 32.26267 -95.65080 35722 ft 363 kts 275°
2026-05-05 11:17 32.26408 -95.71053 35725 ft 364 kts 275°
2026-05-05 11:17 32.26545 -95.77013 35727 ft 364 kts 275°
2026-05-05 11:18 32.26676 -95.82987 35727 ft 365 kts 275°
2026-05-05 11:18 32.26803 -95.88967 35725 ft 365 kts 275°
2026-05-05 11:19 32.26929 -95.94942 35686 ft 363 kts 275°
2026-05-05 11:19 32.26991 -95.97893 35346 ft 359 kts 275°
2026-05-05 11:19 32.27055 -96.00830 34648 ft 362 kts 275°
2026-05-05 11:19 32.27121 -96.03806 33883 ft 365 kts 275°
2026-05-05 11:20 32.27187 -96.06801 32942 ft 369 kts 274°
2026-05-05 11:20 32.27253 -96.09831 31996 ft 373 kts 274°
2026-05-05 11:20 32.27318 -96.12881 31032 ft 376 kts 274°
2026-05-05 11:20 32.27382 -96.15958 30184 ft 374 kts 274°
2026-05-05 11:21 32.27442 -96.18999 29333 ft 371 kts 274°
2026-05-05 11:21 32.27502 -96.22024 28549 ft 368 kts 274°
2026-05-05 11:21 32.27564 -96.25024 27750 ft 365 kts 275°
2026-05-05 11:21 32.27775 -96.27969 26984 ft 359 kts 281°
2026-05-05 11:22 32.28371 -96.30788 26327 ft 354 kts 289°
2026-05-05 11:22 32.29404 -96.33403 25591 ft 353 kts 298°
2026-05-05 11:22 32.30761 -96.35809 24853 ft 354 kts 303°
2026-05-05 11:22 32.32341 -96.38028 24109 ft 355 kts 308°
2026-05-05 11:23 32.34066 -96.40105 23360 ft 355 kts 311°
2026-05-05 11:23 32.35845 -96.42117 22620 ft 355 kts 312°
2026-05-05 11:23 32.37634 -96.44105 21882 ft 354 kts 312°
2026-05-05 11:23 32.39418 -96.46094 21155 ft 353 kts 312°
2026-05-05 11:24 32.41183 -96.48078 20505 ft 350 kts 311°
2026-05-05 11:24 32.42927 -96.50053 19837 ft 346 kts 311°
2026-05-05 11:24 32.44629 -96.51992 18849 ft 339 kts 311°
2026-05-05 11:24 32.46301 -96.53907 17774 ft 334 kts 311°
2026-05-05 11:25 32.47928 -96.55778 17048 ft 319 kts 311°
2026-05-05 11:25 32.49484 -96.57566 16642 ft 306 kts 311°
2026-05-05 11:25 32.51006 -96.59316 16365 ft 306 kts 311°
2026-05-05 11:25 32.52534 -96.61073 16089 ft 304 kts 311°
2026-05-05 11:26 32.54019 -96.62773 15761 ft 291 kts 311°
2026-05-05 11:26 32.55497 -96.64471 15346 ft 303 kts 311°
2026-05-05 11:26 32.57009 -96.66211 14990 ft 300 kts 311°
2026-05-05 11:26 32.58498 -96.67896 14503 ft 293 kts 311°
2026-05-05 11:27 32.59997 -96.69584 14037 ft 302 kts 311°
2026-05-05 11:27 32.61513 -96.71288 13582 ft 296 kts 311°
2026-05-05 11:27 32.62957 -96.72901 13306 ft 274 kts 311°
2026-05-05 11:27 32.64320 -96.74431 13191 ft 272 kts 311°
2026-05-05 11:28 32.65705 -96.76003 13034 ft 274 kts 311°
2026-05-05 11:28 32.67061 -96.77539 12993 ft 268 kts 311°
2026-05-05 11:28 32.68413 -96.79074 12993 ft 270 kts 311°
2026-05-05 11:28 32.69773 -96.80622 12996 ft 271 kts 311°
2026-05-05 11:29 32.71139 -96.82173 12999 ft 272 kts 311°
2026-05-05 11:29 32.72498 -96.83716 12931 ft 266 kts 311°
2026-05-05 11:29 32.73814 -96.85205 12690 ft 263 kts 311°
2026-05-05 11:29 32.75153 -96.86732 12365 ft 267 kts 311°
2026-05-05 11:30 32.76456 -96.88209 12207 ft 248 kts 311°
2026-05-05 11:30 32.77657 -96.89566 12137 ft 234 kts 310°
2026-05-05 11:30 32.78909 -96.90880 12062 ft 245 kts 319°
2026-05-05 11:30 32.80495 -96.91655 11995 ft 254 kts 346°
2026-05-05 11:31 32.82297 -96.91713 11805 ft 263 kts 355°
2026-05-05 11:31 32.84138 -96.91598 11378 ft 267 kts 356°
2026-05-05 11:31 32.85989 -96.91502 10950 ft 266 kts 355°
2026-05-05 11:31 32.87832 -96.91451 10516 ft 263 kts 354°
2026-05-05 11:32 32.89661 -96.91432 10074 ft 262 kts 353°
2026-05-05 11:32 32.91487 -96.91424 9634 ft 262 kts 353°
2026-05-05 11:32 32.93303 -96.91417 9196 ft 261 kts 353°
2026-05-05 11:32 32.95118 -96.91407 8757 ft 260 kts 353°
2026-05-05 11:33 32.96931 -96.91397 8317 ft 261 kts 353°
2026-05-05 11:33 32.98745 -96.91385 7880 ft 261 kts 353°
2026-05-05 11:33 33.00562 -96.91373 7443 ft 261 kts 353°
2026-05-05 11:33 33.02384 -96.91361 7008 ft 261 kts 353°
2026-05-05 11:34 33.04200 -96.91349 6575 ft 259 kts 353°
2026-05-05 11:34 33.05989 -96.91335 6140 ft 255 kts 353°
2026-05-05 11:34 33.07745 -96.91322 5714 ft 250 kts 352°
2026-05-05 11:34 33.09474 -96.91309 5284 ft 246 kts 352°
2026-05-05 11:35 33.11194 -96.91300 4843 ft 246 kts 352°
2026-05-05 11:35 33.12899 -96.91291 4405 ft 244 kts 352°
2026-05-05 11:35 33.14585 -96.91279 4032 ft 238 kts 352°
2026-05-05 11:35 33.16233 -96.91222 3998 ft 237 kts 357°
2026-05-05 11:36 33.17893 -96.91033 4008 ft 239 kts 358°
2026-05-05 11:36 33.19557 -96.90926 4009 ft 238 kts 355°
2026-05-05 11:36 33.21222 -96.90923 4008 ft 238 kts 354°
2026-05-05 11:36 33.22894 -96.90961 4006 ft 239 kts 354°
2026-05-05 11:37 33.24560 -96.91025 4003 ft 238 kts 351°
2026-05-05 11:37 33.26092 -96.91587 4001 ft 225 kts 316°
2026-05-05 11:37 33.26930 -96.93023 4003 ft 205 kts 274°
2026-05-05 11:37 33.26747 -96.94624 4007 ft 193 kts 240°
2026-05-05 11:38 33.26037 -96.95985 4001 ft 191 kts 231°
2026-05-05 11:38 33.25176 -96.97199 4002 ft 190 kts 224°
2026-05-05 11:38 33.24256 -96.98352 3998 ft 190 kts 229°
2026-05-05 11:38 33.23464 -96.99641 4003 ft 191 kts 233°
2026-05-05 11:39 33.22689 -97.00936 4002 ft 190 kts 231°
2026-05-05 11:39 33.21886 -97.02213 4003 ft 190 kts 231°
2026-05-05 11:39 33.21069 -97.03480 4003 ft 190 kts 230°
2026-05-05 11:39 33.20193 -97.04682 4002 ft 189 kts 220°
2026-05-05 11:40 33.19012 -97.05355 4001 ft 186 kts 191°
2026-05-05 11:40 33.17714 -97.05355 4002 ft 185 kts 182°
2026-05-05 11:40 33.16414 -97.05309 4014 ft 182 kts 184°
2026-05-05 11:40 33.15117 -97.05311 4002 ft 182 kts 185°
2026-05-05 11:41 33.13816 -97.05320 4003 ft 182 kts 185°
2026-05-05 11:41 33.12496 -97.05329 4002 ft 182 kts 185°
2026-05-05 11:41 33.11232 -97.05333 3998 ft 166 kts 185°
2026-05-05 11:41 33.10065 -97.05340 4003 ft 162 kts 186°
2026-05-05 11:42 33.08915 -97.05350 3976 ft 162 kts 186°
2026-05-05 11:42 33.07765 -97.05357 3774 ft 157 kts 186°
2026-05-05 11:42 33.06673 -97.05363 3558 ft 150 kts 186°
2026-05-05 11:42 33.05609 -97.05371 3352 ft 149 kts 186°
2026-05-05 11:43 33.04560 -97.05377 3149 ft 144 kts 185°
2026-05-05 11:43 33.03535 -97.05383 2998 ft 137 kts 185°
2026-05-05 11:43 33.02527 -97.05390 2735 ft 131 kts 185°
2026-05-05 11:43 33.01609 -97.05395 2571 ft 127 kts 185°
2026-05-05 11:44 33.00696 -97.05403 2416 ft 124 kts 185°
2026-05-05 11:44 32.99806 -97.05409 2219 ft 126 kts 184°
2026-05-05 11:44 32.98874 -97.05413 2043 ft 125 kts 183°
2026-05-05 11:44 32.97955 -97.05418 1864 ft 126 kts 183°
2026-05-05 11:45 32.97114 -97.05424 1690 ft 119 kts 184°
2026-05-05 11:45 32.96292 -97.05432 1548 ft 128 kts 183°
2026-05-05 11:45 32.95439 -97.05436 1383 ft 126 kts 184°
2026-05-05 11:45 32.94618 -97.05440 1222 ft 120 kts 184°
2026-05-05 11:46 32.93793 -97.05447 1079 ft 123 kts 184°
2026-05-05 11:46 32.92943 -97.05451 919 ft 132 kts 183°
2026-05-05 11:46 32.92053 -97.05457 770 ft 132 kts 183°
2026-05-05 11:46 32.91197 -97.05464 623 ft 119 kts 183°
2026-05-05 11:47 32.90557 -97.05472 617 ft 59 kts 180°
2026-05-05 11:47 32.90353 -97.05467 618 ft 23 kts 184°
2026-05-05 11:47 32.90195 -97.05474 618 ft 22 kts 182°
2026-05-05 11:47 32.90034 -97.05451 615 ft 26 kts 158°
2026-05-05 11:48 32.89763 -97.05213 608 ft 23 kts 100°
2026-05-05 11:48 32.89757 -97.05020 607 ft 24 kts 90°
2026-05-05 11:48 32.89759 -97.04812 603 ft 25 kts 89°
2026-05-05 11:49 32.89771 -97.04612 599 ft 23 kts 90°
2026-05-05 11:49 32.89769 -97.04568 598 ft 0 kts 92°